www.pogodaiklimat.ru
ПОГОДА в Вираке

Архив погоды в Вираке (Филиппины)

Время
(UTC), дата
21 19.10
00 20.10
03 20.10
09 20.10
12 20.10
15 20.10
18 20.10
21 20.10
00 21.10
03 21.10
06 21.10
09 21.10
12 21.10
15 21.10
18 21.10
21 21.10
00 22.10
03 22.10
06 22.10
09 22.10
12 22.10
15 22.10
18 22.10
21 22.10
00 23.10
03 23.10
06 23.10
09 23.10
12 23.10
15 23.10
18 23.10
21 23.10
00 24.10
03 24.10
06 24.10
09 24.10
12 24.10
15 24.10
18 24.10
21 24.10
00 25.10
03 25.10
06 25.10
09 25.10
12 25.10
15 25.10
18 25.10
21 25.10
00 26.10
03 26.10
06 26.10
09 26.10
12 26.10
15 26.10
Ветер
(напр.,м/с)
Видим. Явления Облачность Т
(С)
Тd
(С)
f
(%)
Тe
(С)
Тes
(С)
Комфортность P
(гПа)
Po
(гПа)
Тmin
(С)
Tmax
(С)
R
(мм)
R24
(мм)
S
(см)
СЗ 1 12 км {ливн. дождь} 9/4 540 м
[Cu med, cong Cs]
+25.2 +25.2 100 +36 +36 очень
душно
1013.2 1008.6 0.6
В 2 9000 м слаб. дождь 10/5 480 м
[Cu med, cong As op]
+24.8 +24.4 98 +35 +35 очень
душно
1015.8 1011.2 +24.0 50 50.0
ЮЗ 2 16 км мгла {дождь} 10/4 540 м
[Cu med, cong Cs]
+26.2 +25.0 93 +37 +46 очень
душно
1015.2 1010.6 2
ЮЗ 2 16 км мгла 9/4 540 м
[Cu med, cong Cs]
+28.0 +27.5 97 +45 +45 опасность
перегрева
1012.6 1008.0
З 2 14 км {мгла} 8/4 540 м
[Cu med, cong Ci sp]
+25.8 +25.3 97 +37 +37 очень
душно
1013.6 1009.0 +29.8
СЗ 1 12 км 9/4 540 м
[Cu med, cong Cs]
+24.8 +24.3 97 +34 +34 очень
душно
1013.6 1009.0
СЗ 2 10 км 9/5 540 м
[Cu med, cong Cs]
+24.5 +24.1 98 +34 +34 очень
душно
1012.4 1007.8
С 2 10 км 8/5 540 м
[Cu med, cong Cs]
+24.4 +24.2 99 +34 +34 очень
душно
1012.0 1007.4
С 1 20 км мгла 8/5 450 м
[Cb calv Ci fib]
+28.2 +26.1 88 +42 +45 опасность
перегрева
1013.1 1008.5 +23.4 3 2.6
В 3 20 км в посл. час ливневой дождь {мгла} 9/4 540 м
[Cu med, cong Ac As Ci fib]
+30.0 +28.2 90 +50 +55 опасность
перегрева
1012.5 1007.9 0.4
В 2 20 км в посл. час ливневой дождь 8/4 540 м
[Cu med, cong Ac As Ci sp]
+28.4 +27.6 95 +46 +51 опасность
перегрева
1010.8 1006.2 6
СВ 1 18 км 6/4 540 м
[Cu med, cong Ci fib]
+28.8 +27.8 94 +47 +47 опасность
перегрева
1011.6 1007.0
С 1 16 км в посл. час гроза {ливн. дождь} 10/5 450 м
[Cb calv Ac As]
+26.8 +26.3 97 +41 +41 опасность
перегрева
1013.6 1009.0 +30.4 0.8
СЗ 1 14 км 10/4 540 м
[Cu med, cong Cs]
+25.6 +25.1 97 +37 +37 очень
душно
1012.7 1008.1
З 1 14 км 5/1 540 м
[Cu med, cong Ci fib]
+25.4 +24.9 97 +36 +36 очень
душно
1011.0 1006.4
С 1 14 км 5/1 540 м
[Cu hum Ci fib]
+24.4 +23.9 97 +33 +33 очень
душно
1011.3 1006.7
С 2 18 км мгла 8/4 540 м
[Cu med, cong Ci sp]
+27.6 +26.6 94 +42 +45 опасность
перегрева
1012.8 1008.2 +25.0 7 7.0
С 2 20 км мгла 6/4 540 м
[Cu med, cong Ci fib]
+31.8 +28.8 84 +54 +64 опасность
перегрева
1012.4 1007.8
СВ 2 20 км в посл. час ливневой дождь {мгла} 8/5 540 м
[Cu med, cong Cs]
+30.4 +28.6 90 +52 +57 опасность
перегрева
1010.4 1005.8 0.4
СВ 3 16 км мгла 9/5 540 м
[Cu med, cong Cs]
+29.4 +27.4 89 +47 +47 опасность
перегрева
1011.4 1006.8
СВ 2 12 км {мгла} 8/5 540 м
[Cu med, cong Cs]
+28.0 +26.4 91 +43 +43 опасность
перегрева
1012.8 1008.2 +32.0
СЗ 2 12 км 9/5 540 м
[Cu med, cong Cs]
+26.2 +25.4 95 +38 +38 очень
душно
1012.4 1007.8
В 3 10 км слаб. ливневой дождь 10/5 540 м
[Cu med, cong Cs]
+26.0 +25.2 95 +37 +37 очень
душно
1011.2 1006.6 2
С 2 10 км 8/5 540 м
[Cu med, cong Cs]
+26.4 +25.6 95 +39 +39 очень
душно
1010.8 1006.2
СЗ 4 18 км осадки на расстоянии {ливн. дождь} 10/6 450 м
[Cb calv Cs]
+26.4 +25.6 95 +39 +40 очень
душно
1012.6 1008.0 +25.2 3 3.8
В 2 7000 м дождь {гроза, ливн. дождь} 10/5 450 м
[Sc As op]
+24.8 +24.6 99 +35 +36 очень
душно
1013.4 1008.8 20
ЮЗ 1 9000 м слаб. дождь {гроза, ливн. дождь} 10/4 480 м
[Cu med, cong As op]
+25.6 +25.4 99 +37 +39 очень
душно
1011.1 1006.5 29
З 1 18 км {дождь} 10/3 540 м
[Cu med, cong Cs]
+26.0 +25.2 95 +37 +38 очень
душно
1011.2 1006.6 2
СЗ 2 12 км в посл. час ливневой дождь 10/4 540 м
[Cu med, cong Cs]
+25.2 +24.4 95 +35 +35 очень
душно
1012.9 1008.3 +27.4 2
ЮВ 1 9000 м слаб. ливневой дождь 10/4 480 м
[Cu med, cong Cs]
+26.2 +25.3 95 +38 +38 очень
душно
1012.5 1007.9 1
СЗ 1 12 км {ливн. дождь} 9/4 540 м
[Cu med, cong Cs]
+25.2 +25.0 99 +36 +36 очень
душно
1010.9 1006.3 2
В 1 8000 м ливневой дождь 10/4 480 м
[Cu med, cong Ac As Cs]
+25.4 +25.0 98 +36 +36 очень
душно
1010.9 1006.3 2
В 2 10 км ливневой дождь 10/5 540 м
[Cu med, cong As op]
+25.5 +25.3 99 +37 +37 очень
душно
1012.2 1007.6 +24.2 59 59.0
З 1 16 км осадки на расстоянии {ливн. дождь} 10/5 450 м
[Cb calv Ac As Cs]
+25.9 +25.8 99 +38 +43 очень
душно
1012.5 1007.9 12
С 1 16 км в посл. час ливневой дождь 10/5 450 м
[Cb calv Ac As Cs]
+28.4 +27.4 94 +45 +49 опасность
перегрева
1010.2 1005.6 12
В 1 16 км {ливн. дождь} 10/5 450 м
[Cb calv Ac trans Cs]
+27.6 +27.2 98 +44 +44 опасность
перегрева
1010.1 1005.5 1
В 1 12 км {ливн. дождь, туман} 10/5 540 м
[Cu med, cong Cs]
+26.1 +26.0 99 +39 +39 очень
душно
1012.1 1007.5 +28.6 1
СЗ 1 10 км слаб. ливневой дождь 10/5 540 м
[Cu med, cong Cs]
+25.6 +25.5 99 +37 +37 очень
душно
1012.2 1007.6 2
З 1 12 км {ливн. дождь} 9/4 540 м
[Cu med, cong Cs]
+25.2 +25.0 99 +36 +36 очень
душно
1010.4 1005.8 5
ЮЗ 1 14 км слаб. ливневой дождь {пыльная буря} 10/5 450 м
[Cb calv Cs]
+25.0 +24.8 99 +35 +35 очень
душно
1010.2 1005.6 1
С 4 20 км осадки на расстоянии {ливн. дождь} 9/5 450 м
[Cb cap Cs]
+25.4 +24.9 97 +36 +37 очень
душно
1011.5 1006.9 +24.0 20 20.4
ЮВ 4 20 км осадки на расстоянии {туман} 9/5 450 м
[Cb cap Cs]
+29.2 +28.4 95 +49 +54 опасность
перегрева
1011.3 1006.7
СЗ 4 20 км осадки на расстоянии {ливн. дождь} 10/5 540 м
[Cu med, cong Cs]
+27.0 +26.5 97 +41 +44 опасность
перегрева
1010.1 1005.5 5
СЗ 1 18 км осадки на расстоянии 10/5 540 м
[Cu med, cong Cs]
+25.6 +25.4 99 +37 +37 очень
душно
1010.4 1005.8
СЗ 2 9000 м в посл. час ливневой дождь 10/5 540 м
[Cu med, cong Cs]
+24.8 +24.0 95 +34 +34 очень
душно
1011.2 1006.6 +29.6 1
З 2 9000 м осадки на расстоянии 9/5 540 м
[Cu med, cong Cs]
+24.8 +24.3 97 +34 +34 очень
душно
1011.8 1007.2
СЗ 2 9000 м 6/5 540 м
[Cu med, cong Ci fib]
+24.6 +24.4 99 +34 +34 очень
душно
1010.6 1006.0
СЗ 4 9000 м 9/4 540 м
[Cu med, cong Ac trans Ci fib]
+24.4 +24.2 99 +34 +34 очень
душно
1010.6 1006.0
ЮЗ 2 18 км мгла 9/4 540 м
[Cu med, cong Ac trans Cs]
+26.2 +23.8 87 +36 +38 очень
душно
1012.0 1007.4 +24.0 6 6.0
СВ 3 18 км мгла {ливн. дождь} 9/5 450 м
[Cb calv Cs]
+30.2 +28.7 92 +52 +58 опасность
перегрева
1012.1 1007.5 0.5
В 4 20 км мгла {ливн. дождь} 8/4 450 м
[Cb calv Ci sp]
+31.2 +28.7 87 +54 +58 опасность
перегрева
1010.0 1005.4 0.5
ЮЗ 2 18 км 8/4 540 м
[Cu med, cong Ci sp]
+29.2 +28.2 94 +49 +49 опасность
перегрева
1010.6 1006.0
ЮЗ 2 12 км 8/4 540 м
[Cu med, cong Ci sp]
+26.2 +25.7 97 +39 +39 очень
душно
1012.3 1007.7 +31.4
СЗ 2 10 км 6/3 540 м
[Cu med, cong Ci sp]
+25.2 +25.0 99 +36 +36 очень
душно
1012.3 1007.7
Местоположение метеостанции Вирак (Филиппины): широта 13.58 долгота 124.23 высота над уровнем моря 40 м.
В архиве по умолчанию представлена погода в Вираке за последнюю неделю. Архивные данные за месяц целиком и за предыдущие месяцы, начиная с января 2011 года, Вы можете получить, выбрав интересующий диапазон дат из раскрывающегося списка и нажав кнопку "Найти!".
*Определитесь, кто Вы:
Внимание! Время в таблицах - всемирное. Для получения местного времени необходимо прибавить поправку, которая равна 8 ч.
Смотрите также архив погоды в соседних городах и на ближайших метеорологических станциях:
Партнеры нашего сайта:      
Пояснения к столбцам:
  • Ветер - указаны скорость ветра в м/с - средняя за 10 мин, порывы в срок и между сроками (в фигурных скобках) и направление, откуда дует ветер: С - северный,
  • СВ - северо-восточный, В - восточный, ЮВ - юго-восточный, Ю - южный, ЮЗ - юго-западный, З - западный, СЗ - северо-западный.
  • Видимость - горизонтальная дальность видимости в метрах или километрах. При видимости от 1 до 10 км при отсутствии осадков обычно наблюдается дымка, при ухудшении видимости до 1 км и менее - туман. В сухую погоду видимость может ухудшаться дымом, пылью или мглою.
  • Явления - указаны атмосферные явления, наблюдавшиеся в срок или в последний час перед сроком; фигурными скобками обозначены явления, наблюдавшиеся между сроками (за 1-3 часа до срока); квадратными скобками обозначены град или гололедные отложения с указанием их диаметра в мм.
  • Облачность - указаны через наклонную черту общая и нижняя облачность в баллах и высота нижней границы облаков в метрах; квадратными скобками обозначены формы облаков: Ci - перистые, Cs - перисто-слоистые, Cc - перисто-кучевые, Ac - высококучевые, As - высокослоистые, Sc - слоисто-кучевые, Ns - слоисто-дождевые, Cu - кучевые, Cb - кучево-дождевые. Подробнее классификацию облаков см. в Атласе облаков (PDF).
  • T - Температура воздуха - температура, измеренная на высоте 2 м над землей.
  • Td - Температура точки росы - температура, при понижении до которой содержащийся в воздухе водяной пар достигнет насыщения.
  • f - Относительная влажность воздуха - влажноcть воздуха, измеренная на высоте 2 м над землей.
  • Te - Эффективная температура - температура, которую ощущает одетый по сезону человек в тени. Характеристика душности погоды. При расчете учитывается влияние влажности воздуха и скорости ветра на теплоощущения человека.
  • Tes - Эффективная температура на солнце - температура, которую ощущает человек, с поправкой на солнечный нагрев. Характеристика знойности погоды. Зависит от высоты солнца над горизонтом, облачности и скорости ветра. Ночью, в пасмурную погоду, а также при ветре 12 м/с и более поправка равна нулю.
  • P - Атмосферное давление - приведенное к уровню моря атмосферное давление.
  • Po - Атмосферное давление - измеренное на уровне метеостанции атмосферное давление.
  • Tmin - Минимальная температура - минимум температуры воздуха на высоте 2 м над землей.
  • Tmax - Максимальная температура - максимум температуры воздуха на высоте 2 м над землей.
  • R - Количество осадков - Количество выпавших осадков за период времени, мм. При наведении курсора мыши на число - период времени, за который выпало указанное количество осадков.
  • R24 - Количество осадков - Количество выпавших осадков за 24 часа, мм.
  • S - Снежный покров - Высота снежного покрова, см. При наведении курсора мыши на число - состояние снежного покрова и степень покрытия местности в баллах.